StationID,Date,MaxTemp,MinTemp,Precipitation,Snowfall,SnowDepth
"CA00830P001","2000-07-01",70.52,54.50,6.00,,0.00
"CA00830P001","2000-07-02",78.26,56.48,0.00,,0.00
"CA00830P001","2000-07-03",80.24,57.92,0.00,,0.00
"CA00830P001","2000-07-04",76.28,61.16,165.00,,0.00
"CA00830P001","2000-07-05",71.06,61.16,6.00,,0.00
"CA00830P001","2000-07-06",71.42,55.76,0.00,,0.00
"CA00830P001","2000-07-07",72.50,53.24,0.00,,0.00
"CA00830P001","2000-07-08",61.70,53.06,121.00,,0.00
"CA00830P001","2000-07-09",71.78,54.32,6.00,,0.00
"CA00830P001","2000-07-10",62.78,54.86,94.00,,0.00
"CA00830P001","2000-07-11",65.48,57.56,21.00,,0.00
"CA00830P001","2000-07-12",63.14,55.22,0.00,,0.00
"CA00830P001","2000-07-13",71.60,52.34,6.00,,0.00
"CA00830P001","2000-07-14",76.10,52.52,0.00,,0.00
"CA00830P001","2000-07-15",77.72,61.16,0.00,,0.00
"CA00830P001","2000-07-16",77.18,56.66,41.00,,0.00
"CA00830P001","2000-07-17",68.18,57.56,169.00,,0.00
"CA00830P001","2000-07-18",77.54,65.84,247.00,,0.00
"CA00830P001","2000-07-19",71.42,60.26,7.00,,0.00
"CA00830P001","2000-07-20",69.44,51.08,0.00,,0.00
"CA00830P001","2000-07-21",64.58,52.16,0.00,,0.00
"CA00830P001","2000-07-22",76.82,52.70,0.00,,0.00
"CA00830P001","2000-07-23",72.14,57.56,8.00,,0.00
"CA00830P001","2000-07-24",66.38,57.02,0.00,,0.00
"CA00830P001","2000-07-25",74.84,53.78,0.00,,0.00
"CA00830P001","2000-07-26",76.28,54.86,0.00,,0.00
"CA00830P001","2000-07-27",74.12,59.00,0.00,,0.00
"CA00830P001","2000-07-28",69.80,57.38,220.00,,0.00
"CA00830P001","2000-07-29",63.32,60.62,285.00,,0.00
"CA00830P001","2000-07-30",64.40,57.02,0.00,,0.00
"CA00830P001","2000-07-31",68.90,53.42,0.00,,0.00
"CA00830P001","2000-08-01",75.74,52.16,0.00,,0.00
"CA00830P001","2000-08-02",74.84,53.78,19.00,,0.00
"CA00830P001","2000-08-03",75.20,62.60,0.00,,0.00
"CA00830P001","2000-08-04",78.62,68.00,0.00,,0.00
"CA00830P001","2000-08-05",74.12,57.02,0.00,,0.00
"CA00830P001","2000-08-06",78.44,55.22,0.00,,0.00
"CA00830P001","2000-08-07",72.86,60.26,93.00,,0.00
"CA00830P001","2000-08-08",72.50,63.50,51.00,,0.00
"CA00830P001","2000-08-09",72.68,62.42,102.00,,0.00
"CA00830P001","2000-08-10",71.96,64.22,115.00,,0.00
"CA00830P001","2000-08-11",64.22,59.36,34.00,,0.00
"CA00830P001","2000-08-12",70.52,58.82,9.00,,0.00
"CA00830P001","2000-08-13",69.98,59.36,0.00,,0.00
"CA00830P001","2000-08-14",67.46,57.92,12.00,,0.00
"CA00830P001","2000-08-15",69.62,64.40,6.00,,0.00
"CA00830P001","2000-08-16",78.98,64.94,6.00,,0.00
"CA00830P001","2000-08-17",75.56,63.86,0.00,,0.00
"CA00830P001","2000-08-18",69.80,54.68,0.00,,0.00
"CA00830P001","2000-08-19",62.78,55.58,26.00,,0.00
"CA00830P001","2000-08-20",70.16,50.18,47.00,,0.00
"CA00830P001","2000-08-21",64.58,53.42,42.00,,0.00
"CA00830P001","2000-08-22",67.28,51.08,0.00,,0.00
"CA00830P001","2000-08-23",75.02,53.96,0.00,,0.00
"CA00830P001","2000-08-24",65.66,60.26,51.00,,0.00
"CA00830P001","2000-08-25",72.50,57.02,6.00,,0.00
"CA00830P001","2000-08-26",79.16,57.56,0.00,,0.00
"CA00830P001","2000-08-27",78.98,59.90,35.00,,0.00
"CA00830P001","2000-08-28",65.12,57.56,12.00,,0.00
"CA00830P001","2000-08-29",68.90,49.64,0.00,,0.00
"CA00830P001","2000-08-30",72.68,53.60,0.00,,0.00
"CA00830P001","2000-08-31",69.08,60.62,7.00,,0.00
"CA00830P001","2000-09-01",83.30,56.12,11.00,,0.00
"CA00830P001","2000-09-02",62.42,54.50,35.00,,0.00
"CA00830P001","2000-09-03",63.68,50.54,6.00,,0.00
"CA00830P001","2000-09-04",62.24,53.60,25.00,,0.00
"CA00830P001","2000-09-05",57.38,51.44,13.00,,0.00
"CA00830P001","2000-09-06",60.98,46.22,0.00,,0.00
"CA00830P001","2000-09-07",67.28,47.12,0.00,,0.00
"CA00830P001","2000-09-08",71.60,53.78,8.00,,0.00
"CA00830P001","2000-09-09",68.18,58.82,0.00,,0.00
"CA00830P001","2000-09-10",63.86,47.84,0.00,,0.00
"CA00830P001","2000-09-11",69.98,42.80,0.00,,0.00
"CA00830P001","2000-09-12",69.26,54.32,0.00,,0.00
"CA00830P001","2000-09-13",70.88,59.72,38.00,,0.00
"CA00830P001","2000-09-14",69.26,50.90,0.00,,0.00
"CA00830P001","2000-09-15",69.26,49.46,40.00,,0.00
"CA00830P001","2000-09-16",68.00,62.60,165.00,,0.00
"CA00830P001","2000-09-17",60.98,47.30,0.00,,0.00
"CA00830P001","2000-09-18",64.22,54.14,0.00,,0.00
"CA00830P001","2000-09-19",71.24,47.66,0.00,,0.00
"CA00830P001","2000-09-20",71.06,56.84,0.00,,0.00
"CA00830P001","2000-09-21",72.86,62.96,0.00,,0.00
"CA00830P001","2000-09-22",60.08,54.50,0.00,,0.00
"CA00830P001","2000-09-23",58.64,45.86,92.00,,0.00
"CA00830P001","2000-09-24",62.60,50.00,177.00,,0.00
"CA00830P001","2000-09-25",54.32,43.88,0.00,,0.00
"CA00830P001","2000-09-26",55.40,40.46,0.00,,0.00
"CA00830P001","2000-09-27",60.62,44.78,0.00,,0.00
"CA00830P001","2000-09-28",48.92,41.18,67.00,,0.00
"CA00830P001","2000-09-29",48.02,39.56,7.00,,0.00
"CA00830P001","2000-09-30",58.10,32.72,0.00,,0.00
"CA00830P001","2000-10-01",65.30,50.00,0.00,,0.00
"CA00830P001","2000-10-02",65.30,50.00,0.00,,0.00
"CA00830P001","2000-10-03",64.58,55.76,0.00,,0.00
"CA00830P001","2000-10-04",60.80,50.90,0.00,,0.00
"CA00830P001","2000-10-05",53.96,45.14,0.00,,0.00
"CA00830P001","2000-10-06",57.74,41.90,149.00,,0.00
"CA00830P001","2000-10-07",54.86,45.68,10.00,,0.00
"CA00830P001","2000-10-08",51.80,45.14,22.00,,0.00
"CA00830P001","2000-10-09",58.28,38.84,243.00,,0.00
"CA00830P001","2000-10-10",57.92,44.60,0.00,,0.00
"CA00830P001","2000-10-11",47.30,36.68,6.00,,0.00
"CA00830P001","2000-10-12",54.50,38.84,0.00,,0.00
"CA00830P001","2000-10-13",65.12,48.38,0.00,,0.00
"CA00830P001","2000-10-14",58.82,37.22,6.00,,0.00
"CA00830P001","2000-10-15",48.02,44.96,7.00,,0.00
"CA00830P001","2000-10-16",43.88,38.48,0.00,,0.00
"CA00830P001","2000-10-17",51.80,30.02,0.00,,0.00
"CA00830P001","2000-10-18",56.48,34.52,97.00,,0.00
"CA00830P001","2000-10-19",47.30,45.86,408.00,,0.00
"CA00830P001","2000-10-20",51.98,41.36,0.00,,0.00
"CA00830P001","2000-10-21",64.04,42.26,0.00,,0.00
"CA00830P001","2000-10-22",45.50,38.12,15.00,,0.00
"CA00830P001","2000-10-23",46.04,36.32,0.00,,0.00
"CA00830P001","2000-10-24",56.48,35.24,0.00,,0.00
"CA00830P001","2000-10-25",50.72,42.80,0.00,,0.00
"CA00830P001","2000-10-26",62.60,38.12,6.00,,0.00
"CA00830P001","2000-10-27",61.70,47.66,0.00,,0.00
"CA00830P001","2000-10-28",56.66,42.44,621.00,,0.00
"CA00830P001","2000-10-29",45.50,41.36,27.00,,0.00
"CA00830P001","2000-10-30",50.90,35.42,0.00,,0.00
"CA00830P001","2000-10-31",45.86,43.34,79.00,,0.00
"CA00830P001","2000-11-01",47.30,42.62,227.00,,0.00
"CA00830P001","2000-11-02",45.86,44.24,13.00,,0.00
"CA00830P001","2000-11-03",46.58,42.44,16.00,,0.00
"CA00830P001","2000-11-04",49.46,42.08,76.00,,0.00
"CA00830P001","2000-11-05",46.94,43.34,297.00,,0.00
"CA00830P001","2000-11-06",48.20,45.50,20.00,,0.00
"CA00830P001","2000-11-07",45.50,44.42,17.00,,0.00
"CA00830P001","2000-11-08",44.42,42.62,7.00,,0.00
"CA00830P001","2000-11-09",44.06,41.90,0.00,,0.00
"CA00830P001","2000-11-10",46.22,42.26,7.00,,0.00
"CA00830P001","2000-11-11",45.86,42.62,106.00,,0.00
"CA00830P001","2000-11-12",45.14,42.80,31.00,,0.00
"CA00830P001","2000-11-13",44.42,42.44,0.00,,0.00
"CA00830P001","2000-11-14",47.30,41.54,21.00,,0.00
"CA00830P001","2000-11-15",50.72,44.06,32.00,,0.00
"CA00830P001","2000-11-16",39.38,35.96,36.00,,0.00
"CA00830P001","2000-11-17",47.48,33.98,0.00,,0.00
"CA00830P001","2000-11-18",34.34,31.82,0.00,,0.00
"CA00830P001","2000-11-19",35.24,26.06,0.00,,0.00
"CA00830P001","2000-11-20",38.30,22.10,0.00,,0.00
"CA00830P001","2000-11-21",35.06,28.04,37.00,,
"CA00830P001","2000-11-22",32.72,30.38,75.00,,
"CA00830P001","2000-11-23",31.64,27.86,53.00,,
"CA00830P001","2000-11-24",30.56,19.76,7.00,,40.00
"CA00830P001","2000-11-25",28.58,19.94,7.00,,10.00
"CA00830P001","2000-11-26",37.58,15.08,167.00,,0.00
"CA00830P001","2000-11-27",42.08,33.98,72.00,,0.00
"CA00830P001","2000-11-28",38.30,37.40,0.00,,0.00
"CA00830P001","2000-11-29",35.42,31.64,22.00,,0.00
"CA00830P001","2000-11-30",36.68,32.18,20.00,,0.00
"CA00830P001","2000-12-01",32.18,30.02,0.00,,0.00
"CA00830P001","2000-12-02",31.10,27.50,31.00,,10.00
"CA00830P001","2000-12-03",23.00,17.60,0.00,,100.00
"CA00830P001","2000-12-04",29.30,10.94,6.00,,70.00
"CA00830P001","2000-12-05",37.94,15.44,48.00,,60.00
"CA00830P001","2000-12-06",33.98,26.60,0.00,,30.00
"CA00830P001","2000-12-07",19.40,15.62,0.00,,30.00
"CA00830P001","2000-12-08",11.12,6.98,0.00,,30.00
"CA00830P001","2000-12-09",6.98,4.28,0.00,,40.00
"CA00830P001","2000-12-10",22.10,2.48,0.00,,40.00
"CA00830P001","2000-12-11",41.36,17.06,60.00,,40.00
"CA00830P001","2000-12-12",51.98,31.64,78.00,,10.00
"CA00830P001","2000-12-13",16.70,14.54,0.00,,10.00
"CA00830P001","2000-12-14",29.66,11.48,118.00,,10.00
"CA00830P001","2000-12-15",28.04,20.12,0.00,,130.00
"CA00830P001","2000-12-16",28.22,9.50,9.00,,110.00
"CA00830P001","2000-12-17",55.58,14.36,111.00,,110.00
"CA00830P001","2000-12-18",41.54,35.60,0.00,,10.00
"CA00830P001","2000-12-19",32.18,21.20,101.00,,10.00
"CA00830P001","2000-12-20",49.64,24.44,244.00,,10.00
"CA00830P001","2000-12-21",24.44,20.12,0.00,,20.00
"CA00830P001","2000-12-22",30.74,17.78,191.00,,20.00
"CA00830P001","2000-12-23",24.08,16.34,0.00,,380.00
"CA00830P001","2000-12-24",10.04,6.98,0.00,,270.00
"CA00830P001","2000-12-25",18.14,-0.22,13.00,,230.00
"CA00830P001","2000-12-26",19.40,1.58,6.00,,250.00
"CA00830P001","2000-12-27",29.30,3.56,20.00,,210.00
"CA00830P001","2000-12-28",31.10,18.86,19.00,,210.00
"CA00830P001","2000-12-29",32.18,28.94,9.00,,200.00
"CA00830P001","2000-12-30",32.54,25.70,29.00,,200.00
"CA00830P001","2000-12-31",34.88,21.74,20.00,,200.00
"CA00830P001","2001-01-01",32.00,29.84,14.00,,220.00
"CA00830P001","2001-01-02",26.60,22.10,0.00,,220.00
"CA00830P001","2001-01-03",22.10,12.38,7.00,,220.00
"CA00830P001","2001-01-04",29.48,5.72,7.00,,240.00
"CA00830P001","2001-01-05",21.56,15.62,0.00,,230.00
"CA00830P001","2001-01-06",30.20,3.92,206.00,,230.00
"CA00830P001","2001-01-07",29.84,24.98,111.00,,320.00
"CA00830P001","2001-01-08",26.24,24.44,0.00,,450.00
"CA00830P001","2001-01-09",23.90,13.46,8.00,,430.00
"CA00830P001","2001-01-10",25.34,18.86,6.00,,440.00
"CA00830P001","2001-01-11",21.20,6.80,19.00,,420.00
"CA00830P001","2001-01-12",20.30,11.84,0.00,,400.00
"CA00830P001","2001-01-13",26.96,2.12,13.00,,420.00
"CA00830P001","2001-01-14",27.86,9.86,0.00,,410.00
"CA00830P001","2001-01-15",23.72,10.58,19.00,,440.00
"CA00830P001","2001-01-16",27.68,9.68,29.00,,440.00
"CA00830P001","2001-01-17",23.54,22.28,14.00,,430.00
"CA00830P001","2001-01-18",17.06,11.12,6.00,,450.00
"CA00830P001","2001-01-19",28.04,7.70,49.00,,450.00
"CA00830P001","2001-01-20",12.20,9.86,0.00,,520.00
"CA00830P001","2001-01-21",22.10,1.22,6.00,,500.00
"CA00830P001","2001-01-22",15.08,8.78,6.00,,410.00
"CA00830P001","2001-01-23",30.56,0.32,6.00,,410.00
"CA00830P001","2001-01-24",31.64,22.46,0.00,,390.00
"CA00830P001","2001-01-25",23.00,13.82,0.00,,390.00
"CA00830P001","2001-01-26",24.80,7.34,0.00,,390.00
"CA00830P001","2001-01-27",24.08,3.02,8.00,,390.00
"CA00830P001","2001-01-28",26.24,20.30,21.00,,390.00
"CA00830P001","2001-01-29",22.64,15.62,6.00,,420.00
"CA00830P001","2001-01-30",28.76,4.46,62.00,,420.00
"CA00830P001","2001-01-31",21.92,15.80,19.00,,520.00
"CA00830P001","2001-03-01",15.80,-4.00,0.00,,380.00
"CA00830P001","2001-03-02",20.30,-4.54,13.00,,380.00
"CA00830P001","2001-03-03",24.44,9.14,21.00,,410.00
"CA00830P001","2001-03-04",30.38,10.22,55.00,,400.00
"CA00830P001","2001-03-05",31.82,23.18,0.00,,400.00
"CA00830P001","2001-03-06",29.84,25.16,0.00,,400.00
"CA00830P001","2001-03-07",30.02,24.98,0.00,,390.00
"CA00830P001","2001-03-08",28.76,17.42,0.00,,380.00
"CA00830P001","2001-03-09",33.62,14.72,37.00,,380.00
"CA00830P001","2001-03-10",35.78,23.72,16.00,,420.00
"CA00830P001","2001-03-11",38.30,26.78,14.00,,400.00
"CA00830P001","2001-03-12",30.56,26.78,0.00,,400.00
"CA00830P001","2001-03-13",38.48,15.80,87.00,,400.00
"CA00830P001","2001-03-14",39.38,25.34,8.00,,380.00
"CA00830P001","2001-03-15",35.60,30.02,0.00,,360.00
"CA00830P001","2001-03-16",35.06,25.70,0.00,,350.00
"CA00830P001","2001-03-17",37.40,25.70,0.00,,350.00
"CA00830P001","2001-03-18",33.80,27.86,30.00,,340.00
"CA00830P001","2001-03-19",32.00,30.92,0.00,,360.00
"CA00830P001","2001-03-20",33.80,27.14,0.00,,340.00
"CA00830P001","2001-03-21",41.72,17.42,0.00,,340.00
"CA00830P001","2001-03-22",35.96,20.48,42.00,,330.00
"CA00830P001","2001-03-23",34.70,28.40,39.00,,320.00
"CA00830P001","2001-03-24",33.26,31.82,14.00,,290.00
"CA00830P001","2001-03-25",32.90,27.68,0.00,,290.00
"CA00830P001","2001-03-26",35.60,19.76,0.00,,290.00
"CA00830P001","2001-03-27",35.78,20.12,0.00,,280.00
"CA00830P001","2001-03-28",33.26,18.86,0.00,,280.00
"CA00830P001","2001-03-29",43.34,18.86,0.00,,280.00
"CA00830P001","2001-03-30",44.96,26.06,90.00,,260.00
"CA00830P001","2001-03-31",30.74,28.58,22.00,,400.00
"CA00830P001","2001-04-01",31.28,26.42,26.00,,270.00
"CA00830P001","2001-04-02",31.28,27.50,35.00,,350.00
"CA00830P001","2001-04-03",31.82,27.86,0.00,,340.00
"CA00830P001","2001-04-04",39.20,26.06,0.00,,330.00
"CA00830P001","2001-04-05",43.34,23.18,0.00,,310.00
"CA00830P001","2001-04-06",31.10,27.68,0.00,,290.00
"CA00830P001","2001-04-07",38.66,17.60,0.00,,290.00
"CA00830P001","2001-04-08",41.36,22.10,7.00,,280.00
"CA00830P001","2001-04-09",33.44,29.84,96.00,,270.00
"CA00830P001","2001-04-10",31.82,28.76,13.00,,360.00
"CA00830P001","2001-04-11",33.98,27.14,0.00,,330.00
"CA00830P001","2001-04-12",34.34,18.32,19.00,,310.00
"CA00830P001","2001-04-13",36.50,27.86,7.00,,290.00
"CA00830P001","2001-04-14",32.36,30.74,69.00,,270.00
"CA00830P001","2001-04-15",35.06,30.20,13.00,,310.00
"CA00830P001","2001-04-16",38.12,30.02,0.00,,290.00
"CA00830P001","2001-04-17",44.24,32.54,20.00,,260.00
"CA00830P001","2001-04-18",39.20,28.04,97.00,,240.00
"CA00830P001","2001-04-19",43.16,30.02,0.00,,270.00
"CA00830P001","2001-04-20",48.38,28.94,0.00,,230.00
"CA00830P001","2001-04-21",54.68,35.24,0.00,,190.00
"CA00830P001","2001-04-22",45.86,37.58,27.00,,80.00
"CA00830P001","2001-04-23",48.74,33.44,0.00,,0.00
"CA00830P001","2001-04-24",54.50,29.84,0.00,,0.00
"CA00830P001","2001-04-25",46.94,39.92,0.00,,0.00
"CA00830P001","2001-04-26",51.08,28.76,16.00,,0.00
"CA00830P001","2001-04-27",35.78,31.28,194.00,,0.00
"CA00830P001","2001-04-28",40.10,32.54,0.00,,0.00
"CA00830P001","2001-04-29",40.46,27.50,0.00,,0.00
"CA00830P001","2001-04-30",44.78,24.26,0.00,,0.00
"CA00830P001","2001-05-01",55.58,24.80,7.00,,0.00
"CA00830P001","2001-05-02",51.26,33.98,6.00,,0.00
"CA00830P001","2001-05-03",67.82,33.62,7.00,,0.00
"CA00830P001","2001-05-04",59.18,49.64,0.00,,0.00
"CA00830P001","2001-05-05",48.56,37.04,0.00,,0.00
"CA00830P001","2001-05-06",61.70,32.18,6.00,,0.00
"CA00830P001","2001-05-07",71.06,39.56,0.00,,0.00
"CA00830P001","2001-05-08",74.84,44.06,0.00,,0.00
"CA00830P001","2001-05-09",71.42,40.82,391.00,,0.00
"CA00830P001","2001-05-10",45.50,41.00,384.00,,0.00
"CA00830P001","2001-05-11",47.30,38.66,7.00,,0.00
"CA00830P001","2001-05-12",56.66,38.84,6.00,,0.00
"CA00830P001","2001-05-13",62.24,46.40,50.00,,0.00
"CA00830P001","2001-05-14",48.74,45.86,170.00,,0.00
"CA00830P001","2001-05-15",49.28,44.06,0.00,,0.00
"CA00830P001","2001-05-16",46.76,39.38,0.00,,0.00
"CA00830P001","2001-05-17",52.70,37.76,0.00,,0.00
"CA00830P001","2001-05-18",55.22,37.22,0.00,,0.00
"CA00830P001","2001-05-19",55.04,38.66,6.00,,0.00
"CA00830P001","2001-05-20",54.68,36.68,0.00,,0.00
"CA00830P001","2001-05-21",63.32,31.10,0.00,,0.00
"CA00830P001","2001-05-22",57.92,41.36,0.00,,0.00
"CA00830P001","2001-05-23",64.40,34.52,6.00,,0.00
"CA00830P001","2001-05-24",67.46,41.90,0.00,,0.00
"CA00830P001","2001-05-25",75.92,31.64,0.00,,0.00
"CA00830P001","2001-05-26",71.96,56.12,0.00,,0.00
"CA00830P001","2001-05-27",76.28,45.14,0.00,,0.00
"CA00830P001","2001-05-28",73.58,53.96,16.00,,0.00
"CA00830P001","2001-05-29",69.98,55.04,0.00,,0.00
"CA00830P001","2001-05-30",70.16,51.62,129.00,,0.00
"CA00830P001","2001-05-31",57.20,47.30,10.00,,0.00
"CA00830P001","2001-06-01",60.08,44.06,0.00,,0.00
"CA00830P001","2001-06-02",64.58,40.82,9.00,,0.00
"CA00830P001","2001-06-03",55.58,47.66,225.00,,0.00
"CA00830P001","2001-06-04",59.90,48.74,117.00,,0.00
"CA00830P001","2001-06-05",64.40,49.10,0.00,,0.00
"CA00830P001","2001-06-06",57.20,52.52,0.00,,0.00
"CA00830P001","2001-06-07",56.84,48.20,0.00,,0.00
"CA00830P001","2001-06-08",62.96,44.60,0.00,,0.00
"CA00830P001","2001-06-09",63.50,39.38,17.00,,0.00
"CA00830P001","2001-06-10",63.14,46.94,6.00,,0.00
"CA00830P001","2001-06-11",70.70,40.10,0.00,,0.00
"CA00830P001","2001-06-12",72.14,51.44,0.00,,0.00
"CA00830P001","2001-06-13",73.40,58.64,6.00,,0.00
"CA00830P001","2001-06-14",73.58,58.28,0.00,,0.00
"CA00830P001","2001-06-15",71.06,58.82,0.00,,0.00
"CA00830P001","2001-06-16",72.86,49.64,0.00,,0.00
"CA00830P001","2001-06-17",78.80,50.00,0.00,,0.00
"CA00830P001","2001-06-18",74.66,64.04,6.00,,0.00
"CA00830P001","2001-06-19",75.02,55.22,0.00,,0.00
"CA00830P001","2001-06-20",85.28,62.06,0.00,,0.00
"CA00830P001","2001-06-21",65.84,57.20,0.00,,0.00
"CA00830P001","2001-06-22",73.04,50.00,0.00,,0.00
"CA00830P001","2001-06-23",76.28,57.56,0.00,,0.00
"CA00830P001","2001-06-24",78.08,64.94,147.00,,0.00
"CA00830P001","2001-06-25",76.64,62.96,30.00,,0.00
"CA00830P001","2001-06-26",73.22,58.82,7.00,,0.00
"CA00830P001","2001-06-27",85.46,55.22,0.00,,0.00
"CA00830P001","2001-06-28",64.22,58.10,0.00,,0.00
"CA00830P001","2001-06-29",63.50,54.86,12.00,,0.00
"CA00830P001","2001-06-30",78.08,54.14,280.00,,0.00
"CA00830P001","2001-07-01",71.24,56.66,6.00,,0.00
"CA00830P001","2001-07-02",66.92,62.06,16.00,,0.00
"CA00830P001","2001-07-03",70.52,50.54,0.00,,0.00
"CA00830P001","2001-07-04",73.40,57.02,0.00,,0.00
"CA00830P001","2001-07-05",72.86,59.72,21.00,,0.00
"CA00830P001","2001-07-06",74.12,60.26,117.00,,0.00
"CA00830P001","2001-07-07",69.08,53.42,7.00,,0.00
"CA00830P001","2001-07-08",69.62,56.84,0.00,,0.00
"CA00830P001","2001-07-09",67.28,56.66,0.00,,0.00
"CA00830P001","2001-07-10",66.74,55.40,0.00,,0.00
"CA00830P001","2001-07-11",74.66,60.62,284.00,,0.00
"CA00830P001","2001-07-12",72.32,62.42,7.00,,0.00
"CA00830P001","2001-07-13",71.60,55.94,0.00,,0.00
"CA00830P001","2001-07-14",70.16,56.30,0.00,,0.00
"CA00830P001","2001-07-15",76.64,56.30,0.00,,0.00
"CA00830P001","2001-07-16",68.18,55.04,0.00,,0.00
"CA00830P001","2001-07-17",67.46,56.66,0.00,,0.00
"CA00830P001","2001-07-18",68.18,54.68,0.00,,0.00
"CA00830P001","2001-07-19",70.16,50.90,0.00,,0.00
"CA00830P001","2001-07-20",77.90,54.32,0.00,,0.00
"CA00830P001","2001-07-21",85.10,59.90,7.00,,0.00
"CA00830P001","2001-07-22",81.68,61.88,8.00,,0.00
"CA00830P001","2001-07-23",81.68,62.24,0.00,,0.00
"CA00830P001","2001-07-24",85.28,64.76,179.00,,0.00
"CA00830P001","2001-07-25",75.38,63.86,0.00,,0.00
"CA00830P001","2001-07-26",64.94,57.20,0.00,,0.00
"CA00830P001","2001-07-27",62.24,50.18,0.00,,0.00
"CA00830P001","2001-07-28",68.36,49.64,0.00,,0.00
"CA00830P001","2001-07-29",71.78,55.22,0.00,,0.00
"CA00830P001","2001-07-30",78.80,50.54,0.00,,0.00
"CA00830P001","2001-07-31",78.26,52.88,0.00,,0.00
"CA00830P001","2001-08-01",73.58,57.74,0.00,,0.00
"CA00830P001","2001-08-02",86.00,52.88,0.00,,0.00
"CA00830P001","2001-08-03",80.78,68.00,0.00,,0.00
"CA00830P001","2001-08-04",75.02,57.56,0.00,,0.00
"CA00830P001","2001-08-05",82.76,58.28,0.00,,0.00
"CA00830P001","2001-08-06",86.00,62.78,0.00,,0.00
"CA00830P001","2001-08-07",86.72,68.00,11.00,,0.00
"CA00830P001","2001-08-08",78.62,62.42,0.00,,0.00
"CA00830P001","2001-08-09",86.90,63.32,0.00,,0.00
"CA00830P001","2001-08-10",89.78,69.98,0.00,,0.00
"CA00830P001","2001-08-11",73.94,57.74,0.00,,0.00
"CA00830P001","2001-08-12",80.42,52.52,0.00,,0.00
"CA00830P001","2001-08-13",75.20,61.16,0.00,,0.00
"CA00830P001","2001-08-14",70.52,61.88,0.00,,0.00
"CA00830P001","2001-08-15",76.64,57.38,0.00,,0.00
"CA00830P001","2001-08-16",80.06,60.44,0.00,,0.00
"CA00830P001","2001-08-17",77.72,59.90,54.00,,0.00
"CA00830P001","2001-08-18",75.92,59.72,0.00,,0.00
"CA00830P001","2001-08-19",76.28,62.42,0.00,,0.00
"CA00830P001","2001-08-20",66.92,60.26,0.00,,0.00
"CA00830P001","2001-08-21",73.04,58.46,0.00,,0.00
"CA00830P001","2001-08-22",77.90,67.28,0.00,,0.00
"CA00830P001","2001-08-23",82.22,62.78,21.00,,0.00
"CA00830P001","2001-08-24",66.38,60.08,0.00,,0.00
"CA00830P001","2001-08-25",64.40,53.96,0.00,,0.00
"CA00830P001","2001-08-26",73.58,50.72,0.00,,0.00
"CA00830P001","2001-08-27",77.00,54.50,23.00,,0.00
"CA00830P001","2001-08-28",73.04,62.60,0.00,,0.00
"CA00830P001","2001-08-29",68.90,58.64,0.00,,0.00
"CA00830P001","2001-08-30",68.36,50.36,0.00,,0.00
"CA00830P001","2001-08-31",79.88,54.32,0.00,,0.00
"CA00830P001","2001-09-01",81.50,64.58,152.00,,0.00
"CA00830P001","2001-09-02",64.04,51.98,0.00,,0.00
"CA00830P001","2001-09-03",69.44,46.04,0.00,,0.00
"CA00830P001","2001-09-04",73.58,54.68,0.00,,0.00
"CA00830P001","2001-09-05",61.52,55.58,9.00,,0.00
"CA00830P001","2001-09-06",61.34,53.06,0.00,,0.00
"CA00830P001","2001-09-07",74.84,41.90,0.00,,0.00
"CA00830P001","2001-09-08",84.38,60.62,0.00,,0.00
"CA00830P001","2001-09-09",89.60,64.94,6.00,,0.00
"CA00830P001","2001-09-10",82.22,61.16,0.00,,0.00
"CA00830P001","2001-09-11",75.02,64.58,0.00,,0.00
"CA00830P001","2001-09-12",65.12,50.36,0.00,,0.00
"CA00830P001","2001-09-13",70.16,46.22,0.00,,0.00
"CA00830P001","2001-09-14",60.26,51.62,0.00,,0.00
"CA00830P001","2001-09-15",63.86,43.34,6.00,,0.00
"CA00830P001","2001-09-16",69.08,46.40,0.00,,0.00
"CA00830P001","2001-09-17",72.86,48.74,0.00,,0.00
"CA00830P001","2001-09-18",67.82,51.98,0.00,,0.00
"CA00830P001","2001-09-19",60.98,53.78,0.00,,0.00
"CA00830P001","2001-09-20",67.10,40.10,0.00,,0.00
"CA00830P001","2001-09-21",71.78,53.24,0.00,,0.00
"CA00830P001","2001-09-22",71.96,64.22,31.00,,0.00
"CA00830P001","2001-09-23",73.22,64.40,0.00,,0.00
"CA00830P001","2001-09-24",74.84,50.72,0.00,,0.00
"CA00830P001","2001-09-25",70.88,57.56,0.00,,0.00
"CA00830P001","2001-09-26",70.52,56.48,39.00,,0.00
"CA00830P001","2001-09-27",59.54,55.40,7.00,,0.00
"CA00830P001","2001-09-28",55.40,48.38,19.00,,0.00
"CA00830P001","2001-09-29",54.32,41.36,6.00,,0.00
"CA00830P001","2001-09-30",61.34,41.54,0.00,,0.00
"CA00830P001","2001-10-01",64.22,42.08,0.00,,0.00
"CA00830P001","2001-10-02",70.34,45.32,0.00,,0.00
"CA00830P001","2001-10-03",63.86,44.78,0.00,,0.00
"CA00830P001","2001-10-04",75.20,49.64,0.00,,0.00
"CA00830P001","2001-10-05",70.52,55.94,0.00,,0.00
"CA00830P001","2001-10-06",75.20,50.54,19.00,,0.00
"CA00830P001","2001-10-07",55.76,42.44,0.00,,0.00
"CA00830P001","2001-10-08",53.06,39.38,0.00,,0.00
"CA00830P001","2001-10-09",50.90,39.02,0.00,,0.00
"CA00830P001","2001-10-10",60.62,40.64,0.00,,0.00
"CA00830P001","2001-10-11",71.60,46.76,7.00,,0.00
"CA00830P001","2001-10-12",71.06,53.96,0.00,,0.00
"CA00830P001","2001-10-13",58.28,47.84,0.00,,0.00
"CA00830P001","2001-10-14",63.68,42.08,0.00,,0.00
"CA00830P001","2001-10-15",65.30,53.06,34.00,,0.00
"CA00830P001","2001-10-16",63.68,47.84,128.00,,0.00
"CA00830P001","2001-10-17",64.04,44.42,433.00,,0.00
"CA00830P001","2001-10-18",49.82,45.50,0.00,,0.00
"CA00830P001","2001-10-19",52.88,34.88,0.00,,0.00
"CA00830P001","2001-10-20",60.80,44.06,0.00,,0.00
"CA00830P001","2001-10-21",61.16,41.90,47.00,,0.00
"CA00830P001","2001-10-22",54.86,49.10,0.00,,0.00
"CA00830P001","2001-10-23",50.54,32.90,81.00,,0.00
"CA00830P001","2001-10-24",57.74,40.10,74.00,,0.00
"CA00830P001","2001-10-25",62.60,48.74,0.00,,0.00
"CA00830P001","2001-10-26",58.28,47.12,0.00,,0.00
"CA00830P001","2001-10-27",53.78,39.74,0.00,,0.00
"CA00830P001","2001-10-28",46.76,34.34,0.00,,0.00
"CA00830P001","2001-10-29",47.84,31.82,0.00,,0.00
"CA00830P001","2001-10-30",43.16,39.02,15.00,,0.00
"CA00830P001","2001-10-31",40.82,32.72,0.00,,0.00
"CA00830P001","2001-11-01",52.52,28.40,7.00,,0.00
"CA00830P001","2001-11-02",59.54,44.78,0.00,,0.00